{"data":{"norad_id":50321,"intl_designator":"2021-129A","name":"SHIYAN-12 01 (SY-12 01)","alt_names":[],"object_type":"PAYLOAD","status":"ACTIVE","operator":null,"country":"PRC","launch_date":"2021-12-23","launch_site_code":"WSC","launch_vehicle":null,"mission":null,"orbit_class":"UNKNOWN","rcs_meters":null,"size_class":null,"mass_kg":null,"dimensions":null,"purposes":["comms"],"wikipedia_slug":null,"has_3d_model":false,"image_url":null,"decayed_at":null,"tle_current":{"epoch":"2026-09-19T19:37:41.358720Z","epoch_age_seconds":80988,"freshness":"FRESH","line1":"1 50321U 21129A   26262.81783980  .00000111  00000+0  00000+0 0  9999","line2":"2 50321   3.9116  78.5705 0001684 172.5257  87.1250  1.00479349 17449","mean_motion":1.00479349,"eccentricity":0.0001684,"inclination_deg":3.9116,"raan_deg":78.5705,"arg_perigee_deg":172.5257,"mean_anomaly_deg":87.125,"bstar":0,"rev_number":1744,"period_min":1433.130304218,"perigee_km":35721.416668439,"apogee_km":35735.598186282,"semimajor_km":42106.644427361,"source":"CELESTRAK","updated_at":"2026-09-20T09:00:35.302592Z"}}}